Tracking 30990 objects as of 9-Jul-2025
HD Live streaming from Space Station
objects crossing your sky now

ONEWEB-0278

Track ONEWEB-0278 now!
10-day predictions
ONEWEB-0278 is classified as:


NORAD ID: 48996
Int'l Code: 2021-061AF
Perigee: 1,203.5 km
Apogee: 1,206.3 km
Inclination: 87.9 °
Period: 109.4 minutes
Semi major axis: 7575 km
RCS: Unknown
Launch date: July 1, 2021
Source: United Kingdom (UK)
Launch site: VOSTOCHNY COSMODROME (VOSTO)
Your satellite tracking list
Your tracking list is empty




NASA's NSSDC Master Catalog

Two Line Element Set (TLE):
1 48996U 21060AF  25189.83558766  .00000000  00000-0 -34611-4 0  9998
2 48996  87.9059 297.2083 0001880  93.4537 266.6809 13.16593645194515
Source of the keplerian elements: AFSPC